Aérodrome :
LOGIN :

S'inscrire | Disclaimer

   EN    FR    IT 

 










Légende :    VFR   VFR Marginal   IFR   IFR Intensif   IFR Très Intensif
Visi : 
Plafond : 
>= 8 km
>= 3000ft
5 à 8 km
1000 à 3000 ft
1500m à 5 km
500 à 1000 ft
800 à 1500m
200 à 500 ft
< 800m
< 200 ft
Symboles :   Orages  Brouillard  Fortes neiges  Fortes précipitations  Vent > 20 kt
SIGMETs :   Divers  Orages  Givrage  Turbulence  Onde Orograph.  Cendres Volcan.







- Altitude de l'aérodrome : 106 ft
- Code IATA : NRN


EDLV - Weeze

DERNIER METAR :
  • 210850Z 06005KT 320V120 CAVOK 21/09 Q1016

METARs EXPIRÉS :
  • 210820Z 10007KT 020V160 CAVOK 20/08 Q1016
  • 210750Z 08006KT 010V140 CAVOK 20/09 Q1017
  • 210720Z 09006KT 010V140 CAVOK 19/09 Q1017
  • 210650Z 07005KT 340V140 CAVOK 17/08 Q1017
  • 210620Z VRB05KT CAVOK 17/08 Q1017
  • 210550Z 07005KT 350V120 CAVOK 15/07 Q1017

TAF TAF EDLV
Valide du 21 à 06h jusqu'au 22 à 06h UTC


210500Z 2106/2206 06004KT CAVOK
BECMG 2106/2109 09009KT
BECMG 2115/2118 05004KT
PROB30
TEMPO 2202/2205 02010KT TSRA BKN020CB
Pas de NOTAMs connus pour ce terrain.



MET'MAP, la Météo Aéronautique d'un coup d'oeil ! - Copyright ORBIFLY Décembre 2007 - Disclaimer

ORBIFLY MET'MAP TEAM :

Programmation & Développement : Alexandra Zaïnal
Conception & Développement : Baudouin d'Aumeries
Co-Programmation & Développement : Marc-Olivier Méhu
Soutien technique & logistique : Manuel Goepfert

Contact : metmap@orbifly.com




SOURCES & CREDITS :

   NOAA